Torna al catalogo

DELTA 4 R/B

LostMEO
NORAD 39742·ROCKET BODY·🇺🇸 United States

Lanciato May 17, 2014 da Cape Canaveral Space Force Station

Loading…

Prossimi Passaggi (prossime 24 ore)

TLE

ObsoletoSource: Space-Track

Epoca: Aug 4, 2026, 18:59 UTC

1 39742U 14026B   26216.79135506 -.00000079  00000-0  00000-0 0  9998
2 39742  56.6323 341.2346 0014137 131.8229 228.3138  1.93898856 84014

Traccia DELTA 4 R/B in tempo reale con AllMySat

Download on the App Store